Regional Weather Roundup
Issued by NWS

Home | Current Version | Previous Version | Graphics & Text | Print | Product List | Glossary On
Versions: 1 2 3 4 5 6 7 8 9 10 11 12 13 14 15 16 17 18 19 20 21 22 23 24 25 26 27 28 29
000
ASUS43 KDMX 300207
RWRIA

WEATHER ROUNDUP FOR IOWA
NATIONAL WEATHER SERVICE DES MOINES IA
900 PM CDT WED OCT 29 2014

NOTE: "FAIR" INDICATES FEW OR NO CLOUDS BELOW 12,000 FEET WITH NO
SIGNIFICANT WEATHER AND/OR OBSTRUCTIONS TO VISIBILITY.

* - THESE STATIONS ARE NOT NWS STATIONS...THUS NOT UNDER NWS
QUALITY CONTROL.  THEY ALSO DO NOT REPORT WEATHER SUCH
AS PRECIPITATION OR FOG.

IAZ001>003-012>014-020>022-031>034-043>046-300300-
   NORTHWEST IOWA

CITY           SKY/WX    TMP DP  RH WIND       PRES   REMARKS
CARROLL *      CLEAR     37  32  81 SW3       30.10R
CHEROKEE *     MOCLDY    39  34  81 CALM      30.09S
DENISON *      CLEAR     39  32  75 E5        30.07F
LE MARS *      CLEAR     45  32  61 SE6       30.07F
ORANGE CITY *  CLEAR     45  30  57 CALM      30.07S
SHELDON *      CLEAR     39  32  75 S3        30.06F
SIOUX CITY     MOCLDY    43  32  65 SE7       30.07F
SPENCER        MOCLDY    36  29  75 S5        30.08S WCI  32
STORM LAKE *   CLEAR     41  30  65 S6        30.09F
$$

IAZ055>058-069>071-079>083-090>094-300300-
   SOUTHWEST IOWA

CITY           SKY/WX    TMP DP  RH WIND       PRES   REMARKS
ATLANTIC *     CLEAR     39  32  75 CALM      30.10S
AUDUBON *      CLEAR     36  28  75 CALM      30.11S
CLARINDA *     CLEAR     37  34  87 CALM      30.12F
COUNCIL BLFS * CLEAR     45  32  61 SE7       30.06F
CRESTON *      CLEAR     41  32  70 S7        30.12R
HARLAN  *      CLEAR     37  32  81 CALM      30.12F
LAMONI         CLEAR     46  33  60 S6        30.12F
RED OAK *      PTCLDY    39  32  75 CALM      30.10F
SHENANDOAH *   CLEAR     41  34  75 CALM      30.10F
$$

IAZ047>049-059>061-072>074-084-300300-
   CENTRAL IOWA

CITY           SKY/WX    TMP DP  RH WIND       PRES   REMARKS
AMES           CLEAR     37  32  82 CALM      30.11S
ANKENY *       CLEAR     37  34  87 CALM      30.12S
CHARITON *     CLEAR     41  36  81 SE3       30.12S
DES MOINES     CLEAR     47  33  58 S6        30.12S
GRINNELL*      CLEAR     36  32  87 E3        30.13S
KNOXVILLE *    CLEAR     43  32  65 SE6       30.11S
MARSHALLTOWN   CLEAR     37  32  82 S6        30.11S WCI  32
PELLA *        CLEAR     41  34  75 SE3       30.14S
PERRY *          N/A     37  34  87 S3        30.10S
$$

IAZ004>006-015-016-023>025-035-036-300300-
   NORTH CENTRAL IOWA

CITY           SKY/WX    TMP DP  RH WIND       PRES   REMARKS
ALGONA *       CLEAR     39  32  75 SE5       30.10R
CLARION *      CLEAR     36  32  87 SE6       30.10S WCI  31
ESTHERVILLE    PTCLDY    37  29  72 S7        30.08R WCI  32
FORT DODGE *   CLEAR     39  30  70 CALM      30.11R
MASON CITY     CLEAR     31  29  92 S3        30.11S
FOREST CITY *    N/A     32  32 100 CALM      30.09S
IOWA FALLS *     N/A     37  32  81 SE3       30.11S
$$

IAZ007>011-017>019-026>030-037>042-050>054-066-300300-
   NORTHEAST IOWA

CITY           SKY/WX    TMP DP  RH WIND       PRES   REMARKS
CEDAR RAPIDS   CLEAR     37  31  78 CALM      30.12F
CHARLES CITY * CLEAR     36  30  80 E3        30.11F
CLINTON *      CLEAR     36  28  75 CALM      30.17R
DECORAH *      CLEAR     37  32  81 CALM      30.09F
DUBUQUE        CLEAR     32  29  88 CALM      30.13S
MONTICELLO *   CLEAR     32  30  93 CALM      30.13S
OELWEIN *      CLEAR     37  32  81 CALM      30.12S
WATERLOO       CLEAR     34  29  82 CALM      30.11S
$$

IAZ064-065-067-068-078-300300-
   EAST CENTRAL IOWA

CITY           SKY/WX    TMP DP  RH WIND       PRES   REMARKS
DAVENPORT      CLEAR     37  29  72 CALM      30.14S
IOWA CITY      CLEAR     39  33  79 CALM      30.15F
MT. PLEASANT * CLEAR     37  32  81 CALM      30.15S
MUSCATINE *    CLEAR     41  32  70 CALM      30.15S
QUAD CITIES    CLEAR     37  31  78 SW3       30.14S
$$

IAZ062-063-075>077-085>089-095>099-300300-
   SOUTHEAST IOWA

CITY           SKY/WX    TMP DP  RH WIND       PRES   REMARKS
BURLINGTON     CLEAR     38  34  85 CALM      30.14F
FAIRFIELD *    CLEAR     39  32  75 SE3       30.14S
FORT MADISON * CLEAR     41  36  81 CALM      30.15F
KEOKUK *       MIX PCPN  45  36  70 CALM      30.14F
OSKALOOSA *      N/A     37  32  81 SE6       30.13F WCI  33
CENTERVILLE *    N/A     36  32  87 E5        30.15S WCI  32
OTTUMWA        CLEAR     38  32  79 E3        30.13S
WASHINGTON *   CLEAR     39  34  81 CALM      30.14S
$$

ABBREVIATIONS USED IN REMARKS
   TC - TEMPERATURES IN CELSIUS
  WCI - WIND CHILL INDEX
   HX - HEAT INDEX
  VSB - VISIBILITY
$$




USA.gov is the U.S. government's official web portal to all federal, state and local government web resources and services.